Regional Weather Roundup
Issued by NWS

Home | Current Version | Previous Version | Graphics & Text | Print | Product List | Glossary On
Versions: 1 2 3 4 5 6 7 8 9 10 11 12 13 14 15 16 17 18 19 20 21 22 23 24 25 26 27 28 29 30 31 32 33 34 35 36 37 38 39 40 41 42 43 44 45 46 47 48 49 50
000
ASUS43 KLSX 241107
RWRMO

WEATHER SUMMARY FOR MISSOURI
NATIONAL WEATHER SERVICE SPRINGFIELD MO
600 AM CDT THU JUL 24 2014

NOTE: "FAIR" INDICATES FEW OR NO CLOUDS BELOW 12,000 FEET WITH NO
       SIGNIFICANT WEATHER AND/OR OBSTRUCTIONS TO VISIBILITY.
       CURRENT SKY AND/OR WEATHER CONDITIONS ARE NOT AVAILABLE FOR
       CHILLICOTHE AND FARMINGTON.

MOZ001>031-035>038-043-044-053-054-241200-
...NORTHERN AND WESTERN MISSOURI...

CITY           SKY/WX    TMP DP  RH WIND       PRES   REMARKS
KANSAS CTY INT CLEAR     67  59  75 E8        30.14R
KANSAS C DTWN  CLEAR     68  60  75 E7        30.13R
LEE`S SUMMIT   CLEAR     64  60  87 E5        30.14R
ST JOSEPH      CLEAR     66  59  78 E5        30.14R
CHILLICOTHE      N/A     60  57  89 CALM      30.16R
KIRKSVILLE     CLEAR     56  54  93 CALM      30.16S

$$
MOZ066>068-077>081-088>096-101>105-241200-
...SOUTHWEST MISSOURI...

CITY           SKY/WX    TMP DP  RH WIND       PRES   REMARKS
SPRINGFIELD    CLEAR     67  64  90 E5        30.11R
JOPLIN         CLEAR     67  64  90 N6        30.10R

$$
MOZ032>034-039>042-045>050-055>058-069>072-241200-
...CENTRAL MISSOURI...

CITY           SKY/WX    TMP DP  RH WIND       PRES   REMARKS
COLUMBIA       CLEAR     60  58  92 NE8       30.14R
JEFFERSON CITY CLEAR     61  58  90 CALM      30.13R
ROLLA          CLEAR     60  56  86 E5        30.12R
SEDALIA        CLEAR     62  58  86 NE5       30.14R
WHITEMAN AFB   CLEAR     60  52  75 NE2       30.13R
OSAGE BEACH    CLEAR     63  57  82 CALM      30.13R

$$
MOZ051-052-059>065-241200-
...EAST CENTRAL MISSOURI...

CITY           SKY/WX    TMP DP  RH WIND       PRES   REMARKS
ST LOUIS INTL  CLEAR     62  52  69 N5        30.13R
SPIRIT OF STL  CLEAR     55  52  89 CALM      30.12R
ST CHARLES     CLEAR     59  53  80 N8        30.12R

$$
MOZ072>076-082>087-097>100-106>115-241200-
...SOUTH CENTRAL AND SOUTHEAST MISSOURI...

CITY           SKY/WX    TMP DP  RH WIND       PRES   REMARKS
CAPE GIRARDEAU CLEAR     59  53  80 N6        30.07R
FARMINGTON     CLEAR     57  52  82 N5        30.13R
POPLAR BLUFF   PTCLDY    63  51  65 N7        30.06R
WEST PLAINS    PTCLDY    63  58  83 NE7       30.12R

$$



USA.gov is the U.S. government's official web portal to all federal, state and local government web resources and services.